Lid_Strength_Index
2 4 5 5 9 11 13 12 9 9 9 7 7 7 8 8 10 12 3 1 -0 -0 -1 -1 -1 -2 -2 -2 -2 -2 -2 -2 -2 -2 -2 -2 -2 -2 -2 -2 -2 -2 -2 -2 -2 -2 -2 -2 -2
5 4 5 7 12 14 14 10 10 8 7 6 6 7 7 9 5 4 3 1 -0 -0 -1 -1 -1 -2 -2 -2 -2 -2 -2 -2 -2 -2 -2 -2 -2 -2 -2 -2 -2 -2 -2 -2 -2 -2 -2 -2 -2
5 4 7 9 12 14 13 11 9 8 7 7 8 6 7 8 4 3 2 0 -0 -0 -1 -1 -1 -2 -2 -2 -2 -2 -2 -2 -2 -2 -2 -2 -2 -2 -2 -2 -2 -2 -2 -2 -2 -2 -2 -2 -2
7 7 8 11 13 11 11 10 8 8 8 7 7 8 6 4 3 2 1 0 1 0 -1 -1 -1 -2 -2 -2 -2 -2 -2 -2 -2 -2 -2 -2 -2 -2 -2 -2 -2 -2 -2 -2 -2 -2 -2 -2 -2
7 9 11 12 13 12 11 8 8 8 8 8 7 9 8 3 2 1 1 1 0 0 -0 -1 -1 -1 -2 -2 -2 -2 -2 -2 -2 -2 -2 -2 -2 -2 -2 -2 -2 -2 -2 -2 -2 -2 -2 -2 -2
10 10 13 14 13 12 11 8 7 8 8 8 7 8 7 3 2 3 1 1 0 1 -0 -1 0 -1 -1 -2 -2 -2 -2 -2 -2 -2 -2 -2 -2 -2 -2 -2 -2 -2 -2 -2 -2 -2 -2 -2 -2
11 12 13 13 12 12 10 8 8 9 8 8 7 9 6 4 2 2 2 1 0 -0 -0 -0 -0 0 0 -1 -1 -1 -2 -1 -2 -2 -2 -2 -2 -2 -2 -2 -2 -2 -2 -2 -2 -2 -2 -2 -2
10 10 12 12 12 12 9 8 8 9 9 7 7 8 9 5 2 2 2 1 1 0 -0 -0 0 -0 -0 -0 1 0 -1 -1 -1 -1 -1 -1 -1 -1 -1 -1 -2 -2 -2 -2 -2 -2 -2 -2 -2
8 12 12 12 11 11 9 9 9 9 8 8 6 6 5 3 2 3 3 3 1 1 0 0 -0 0 0 -0 1 1 1 1 0 0 1 0 -0 -0 -0 -0 -1 -2 -2 -2 -2 -1 -2 -2 -2
12 11 10 9 9 10 9 9 9 10 10 9 7 4 3 3 3 4 4 4 3 2 2 1 0 0 0 -1 0 0 0 1 0 -1 1 -0 0 0 -0 1 -0 -1 -1 -2 -1 -1 -2 -1 0
10 11 9 9 9 8 9 10 9 10 11 9 8 6 4 4 4 4 4 4 3 2 1 1 1 0 1 0 0 0 0 1 0 -0 0 -0 1 1 1 1 1 1 1 0 0 0 1 2 1
11 8 9 8 8 9 9 9 10 9 9 7 5 4 4 5 4 4 4 3 3 2 1 1 0 -0 -0 1 1 0 0 0 1 0 0 -0 1 2 1 1 1 1 1 2 2 2 2 2 1
10 10 9 9 8 9 8 10 9 10 9 7 4 4 5 5 4 4 3 3 3 3 1 1 1 0 -0 0 0 0 1 1 1 0 0 -0 1 2 1 2 1 1 1 2 2 2 2 2 1
9 9 10 9 10 10 9 10 10 9 9 7 4 5 5 5 5 5 4 4 3 2 2 1 1 0 -0 0 0 -0 -0 -0 -0 1 1 1 1 1 2 2 2 2 1 2 2 2 2 2 2
9 11 11 11 10 11 10 11 11 11 9 9 8 7 6 5 5 5 4 4 2 2 2 1 1 1 0 -0 -0 0 -0 1 1 0 -0 1 1 1 1 2 2 2 2 2 3 2 2 2 2
11 11 14 12 10 10 10 13 10 10 10 10 10 10 8 7 5 4 4 3 3 2 2 1 1 1 1 0 -0 -0 -0 1 1 0 0 0 1 1 2 2 3 3 3 3 3 3 3 3 3
13 16 15 13 10 11 11 13 11 10 10 11 11 11 10 9 7 6 4 4 3 3 2 2 2 2 2 1 -0 -0 -0 -0 1 1 1 1 1 0 2 2 2 3 4 4 4 4 4 4 4
16 16 14 14 12 11 13 13 12 11 10 10 10 11 11 10 8 7 5 4 3 3 3 2 2 2 2 1 -0 -0 -0 -0 -0 -0 1 1 1 1 1 2 2 3 4 5 5 6 6 5 5
14 13 15 14 11 12 13 13 12 11 11 12 11 11 11 11 9 8 6 4 4 4 3 2 2 2 2 3 1 1 1 1 0 -0 -0 0 1 1 1 1 1 2 3 4 5 5 6 6 5
14 14 15 13 11 13 13 13 12 11 11 11 11 11 10 11 10 9 9 8 8 9 6 4 2 2 2 2 1 1 1 0 0 0 1 1 1 1 1 1 1 1 3 3 4 6 7 7 7
14 14 15 14 13 14 15 15 14 11 11 11 11 10 10 10 10 10 9 9 9 9 9 9 8 3 2 2 2 2 0 1 1 1 0 1 1 1 1 2 2 2 2 3 4 5 6 6 6
16 12 12 13 15 18 16 20 16 14 13 12 11 11 10 10 10 10 9 9 8 8 7 7 7 8 6 2 2 2 2 3 1 1 0 0 1 1 1 2 2 2 2 3 4 5 5 5 6
13 11 12 13 14 17 17 19 16 15 15 12 11 11 11 11 10 9 8 8 7 7 7 6 6 8 8 2 2 3 4 3 2 1 1 0 1 1 1 2 2 2 3 3 4 5 5 5 5
11 12 13 14 16 19 18 18 19 16 13 14 12 12 10 10 10 9 9 7 7 7 6 5 6 8 8 6 3 3 4 2 2 2 2 1 1 1 2 2 2 2 2 3 3 4 4 5 4
13 16 19 19 20 21 19 19 17 14 13 12 12 10 11 10 10 10 9 8 8 8 6 4 5 5 7 5 4 4 3 2 2 3 2 2 2 2 2 2 2 2 2 2 3 4 5 4 5
14 14 19 23 22 20 18 19 16 13 13 12 10 10 10 10 9 9 9 9 9 8 7 5 5 5 5 4 4 4 4 3 2 2 2 2 3 2 3 2 2 2 2 3 3 3 4 4 4
13 15 12 17 22 20 19 17 13 12 13 12 11 11 11 10 10 9 9 9 9 9 8 6 5 5 5 5 5 5 5 5 3 3 3 3 4 5 3 3 4 4 4 4 4 4 4 4 4
12 11 15 16 22 22 20 19 17 14 14 13 12 11 11 10 10 10 9 9 9 9 8 8 7 7 6 6 6 6 6 6 6 6 5 6 6 6 6 6 6 6 6 6 6 6 5 6 6
14 14 14 14 16 20 21 19 14 14 13 13 12 11 11 10 10 10 10 9 9 9 9 9 9 8 8 8 7 7 7 7 8 8 8 8 8 8 9 8 8 8 8 8 8 8 8 8 8
12 13 13 16 17 17 18 18 14 13 12 12 11 10 10 10 10 10 10 10 10 10 10 10 10 10 10 10 10 10 10 10 10 11 10 10 10 10 10 10 10 10 10 10 10 11 11 11 11